{"data":{"norad_id":57381,"intl_designator":"2023-099BF","name":"STARLINK-6371","alt_names":[],"object_type":"PAYLOAD","status":"ACTIVE","operator":null,"country":"US","launch_date":"2023-07-16","launch_site_code":"AFETR","launch_vehicle":null,"mission":null,"orbit_class":"UNKNOWN","rcs_meters":null,"size_class":null,"mass_kg":null,"dimensions":null,"purposes":["comms"],"wikipedia_slug":null,"has_3d_model":false,"image_url":null,"decayed_at":null,"tle_current":{"epoch":"2026-05-25T00:50:42.277056Z","epoch_age_seconds":68082,"freshness":"FRESH","line1":"1 57381U 23099BF  26145.03521154  .00001254  00000+0  55072-4 0  9990","line2":"2 57381  43.0026 152.5308 0001036 285.7346  74.3392 15.27581229158824","mean_motion":15.27581229,"eccentricity":0.0001036,"inclination_deg":43.0026,"raan_deg":152.5308,"arg_perigee_deg":285.7346,"mean_anomaly_deg":74.3392,"bstar":5.5072e-5,"rev_number":15882,"period_min":94.266672872294,"perigee_km":482.3345974757,"apogee_km":483.75623447229,"semimajor_km":6861.182415974,"source":"CELESTRAK","updated_at":"2026-05-25T13:38:18.297250Z"}}}